Time,TemperatureF,DewpointF,PressureIn,WindDirection,WindDirectionDegrees,WindSpeedMPH,WindSpeedGustMPH,Humidity,HourlyPrecipIn,Conditions,Clouds,dailyrainin,SoftwareType,DateUTC
2013-06-19 00:00:00,59.9,25.5,29.87,ENE,67,0.0,0.0,27,0.00,,,0.00,WUHU21423XXSP,2013-06-19 04:00:00,
2013-06-19 00:02:00,59.7,25.4,29.87,ENE,67,0.0,0.0,27,0.00,,,0.00,WUHU21423XXSP,2013-06-19 04:02:00,
2013-06-19 00:06:00,59.7,25.4,29.87,ENE,67,0.0,0.0,27,0.00,,,0.00,WUHU21423XXSP,2013-06-19 04:06:00,
2013-06-19 00:13:00,59.7,25.4,29.87,ENE,67,0.0,0.0,27,0.00,,,0.00,WUHU21423XXSP,2013-06-19 04:13:00,
2013-06-19 00:19:00,59.7,24.4,29.87,ENE,67,0.0,0.0,26,0.00,,,0.00,WUHU21423XXSP,2013-06-19 04:19:00,
2013-06-19 00:21:00,59.7,24.4,29.87,ENE,67,0.0,0.0,26,0.00,,,0.00,WUHU21423XXSP,2013-06-19 04:21:00,
2013-06-19 00:27:00,59.9,24.5,29.87,ENE,67,0.0,0.0,26,0.00,,,0.00,WUHU21423XXSP,2013-06-19 04:27:00,
2013-06-19 00:34:00,60.1,24.7,29.87,ENE,67,0.0,0.0,26,0.00,,,0.00,WUHU21423XXSP,2013-06-19 04:34:00,
2013-06-19 00:40:00,60.1,24.7,29.87,ENE,67,0.0,0.0,26,0.00,,,0.00,WUHU21423XXSP,2013-06-19 04:40:00,
2013-06-19 00:47:00,59.7,24.4,29.87,ENE,67,0.0,0.0,26,0.00,,,0.00,WUHU21423XXSP,2013-06-19 04:47:00,
2013-06-19 00:53:00,59.5,24.2,29.87,ENE,67,0.0,0.0,26,0.00,,,0.00,WUHU21423XXSP,2013-06-19 04:53:00,
2013-06-19 01:02:00,59.5,24.2,29.87,ENE,67,0.0,0.0,26,0.00,,,0.00,WUHU21423XXSP,2013-06-19 05:02:00,
2013-06-19 01:08:00,59.7,24.4,29.87,ENE,67,0.0,0.0,26,0.00,,,0.00,WUHU21423XXSP,2013-06-19 05:08:00,
2013-06-19 01:15:00,59.4,24.1,29.87,ENE,67,0.0,0.0,26,0.00,,,0.00,WUHU21423XXSP,2013-06-19 05:15:00,
2013-06-19 01:21:00,59.2,23.9,29.87,ENE,67,0.0,0.0,26,0.00,,,0.00,WUHU21423XXSP,2013-06-19 05:21:00,
2013-06-19 01:27:00,58.8,23.6,29.87,ENE,67,0.0,0.0,26,0.00,,,0.00,WUHU21423XXSP,2013-06-19 05:27:00,
2013-06-19 01:34:00,58.8,23.6,29.87,ENE,67,0.0,0.0,26,0.00,,,0.00,WUHU21423XXSP,2013-06-19 05:34:00,
2013-06-19 01:40:00,59.2,23.9,29.87,ENE,67,0.0,0.0,26,0.00,,,0.00,WUHU21423XXSP,2013-06-19 05:40:00,
2013-06-19 01:47:00,58.8,23.6,29.88,ENE,67,0.0,0.0,26,0.00,,,0.00,WUHU21423XXSP,2013-06-19 05:47:00,
2013-06-19 01:53:00,58.8,23.6,29.87,ENE,67,0.0,0.0,26,0.00,,,0.00,WUHU21423XXSP,2013-06-19 05:53:00,
2013-06-19 02:00:00,58.8,23.6,29.87,ENE,67,0.0,0.0,26,0.00,,,0.00,WUHU21423XXSP,2013-06-19 06:00:00,
2013-06-19 02:06:00,58.8,23.6,29.87,ENE,67,0.0,0.0,26,0.00,,,0.00,WUHU21423XXSP,2013-06-19 06:06:00,
2013-06-19 02:12:00,58.8,23.6,29.87,ENE,67,0.0,0.0,26,0.00,,,0.00,WUHU21423XXSP,2013-06-19 06:12:00,
2013-06-19 02:19:00,58.8,23.6,29.87,ENE,67,0.0,0.0,26,0.00,,,0.00,WUHU21423XXSP,2013-06-19 06:19:00,
2013-06-19 02:25:00,58.8,23.6,29.87,ENE,67,0.0,0.0,26,0.00,,,0.00,WUHU21423XXSP,2013-06-19 06:25:00,
2013-06-19 02:32:00,58.8,23.6,29.87,ENE,67,0.0,0.0,26,0.00,,,0.00,WUHU21423XXSP,2013-06-19 06:32:00,
2013-06-19 02:38:00,58.6,23.5,29.88,ENE,67,0.0,0.0,26,0.00,,,0.00,WUHU21423XXSP,2013-06-19 06:38:00,
2013-06-19 02:45:00,58.6,23.5,29.87,ENE,67,0.0,0.0,26,0.00,,,0.00,WUHU21423XXSP,2013-06-19 06:45:00,
2013-06-19 02:51:00,58.6,23.5,29.87,ENE,67,0.0,0.0,26,0.00,,,0.00,WUHU21423XXSP,2013-06-19 06:51:00,
2013-06-19 02:57:00,58.6,23.5,29.87,ENE,67,0.0,0.0,26,0.00,,,0.00,WUHU21423XXSP,2013-06-19 06:57:00,
2013-06-19 03:04:00,58.5,23.3,29.87,ENE,67,0.0,0.0,26,0.00,,,0.00,WUHU21423XXSP,2013-06-19 07:04:00,
2013-06-19 03:10:00,58.5,23.2,29.87,ENE,67,0.0,0.0,26,0.00,,,0.00,WUHU21423XXSP,2013-06-19 07:10:00,
2013-06-19 03:17:00,58.6,23.5,29.87,ENE,67,0.0,0.0,26,0.00,,,0.00,WUHU21423XXSP,2013-06-19 07:17:00,
2013-06-19 03:23:00,58.8,23.6,29.87,ENE,67,0.0,0.0,26,0.00,,,0.00,WUHU21423XXSP,2013-06-19 07:23:00,
2013-06-19 03:30:00,58.8,23.6,29.87,ENE,67,0.0,0.0,26,0.00,,,0.00,WUHU21423XXSP,2013-06-19 07:30:00,
2013-06-19 03:36:00,58.8,23.6,29.87,ENE,67,0.0,0.0,26,0.00,,,0.00,WUHU21423XXSP,2013-06-19 07:36:00,
2013-06-19 03:42:00,58.8,23.6,29.87,ENE,67,0.0,0.0,26,0.00,,,0.00,WUHU21423XXSP,2013-06-19 07:42:00,
2013-06-19 03:49:00,58.8,23.6,29.87,ENE,67,0.0,0.0,26,0.00,,,0.00,WUHU21423XXSP,2013-06-19 07:49:00,
2013-06-19 03:55:00,58.8,23.6,29.87,ENE,67,0.0,0.0,26,0.00,,,0.00,WUHU21423XXSP,2013-06-19 07:55:00,
2013-06-19 04:02:00,58.8,23.6,29.87,ENE,67,0.0,0.0,26,0.00,,,0.00,WUHU21423XXSP,2013-06-19 08:02:00,
2013-06-19 04:08:00,58.6,23.5,29.87,ENE,67,0.0,0.0,26,0.00,,,0.00,WUHU21423XXSP,2013-06-19 08:08:00,
2013-06-19 04:14:00,58.3,23.2,29.87,ENE,67,0.0,0.0,26,0.00,,,0.00,WUHU21423XXSP,2013-06-19 08:14:00,
2013-06-19 04:21:00,58.1,23.0,29.87,ENE,67,0.0,0.0,26,0.00,,,0.00,WUHU21423XXSP,2013-06-19 08:21:00,
2013-06-19 04:27:00,58.1,23.0,29.87,ENE,67,0.0,0.0,26,0.00,,,0.00,WUHU21423XXSP,2013-06-19 08:27:00,
2013-06-19 04:34:00,58.1,23.0,29.87,ENE,67,0.0,0.0,26,0.00,,,0.00,WUHU21423XXSP,2013-06-19 08:34:00,
2013-06-19 04:40:00,58.1,23.0,29.87,ENE,67,0.0,0.0,26,0.00,,,0.00,WUHU21423XXSP,2013-06-19 08:40:00,
2013-06-19 04:47:00,57.9,22.9,29.87,ENE,67,0.0,0.0,26,0.00,,,0.00,WUHU21423XXSP,2013-06-19 08:47:00,
2013-06-19 04:53:00,57.7,22.7,29.87,ENE,67,0.0,0.0,26,0.00,,,0.00,WUHU21423XXSP,2013-06-19 08:53:00,
2013-06-19 04:59:00,57.6,22.5,29.88,ENE,67,0.0,0.0,26,0.00,,,0.00,WUHU21423XXSP,2013-06-19 08:59:00,
2013-06-19 05:06:00,57.4,23.3,29.88,ENE,67,0.0,0.0,27,0.00,,,0.00,WUHU21423XXSP,2013-06-19 09:06:00,
2013-06-19 05:12:00,57.6,23.5,29.88,ENE,67,0.0,0.0,27,0.00,,,0.00,WUHU21423XXSP,2013-06-19 09:12:00,
2013-06-19 05:19:00,57.7,22.7,29.88,ENE,67,0.0,0.0,26,0.00,,,0.00,WUHU21423XXSP,2013-06-19 09:19:00,
2013-06-19 05:25:00,57.6,23.5,29.88,East,90,0.0,0.0,26,0.00,,,0.00,WUHU21423XXSP,2013-06-19 09:25:00,
2013-06-19 05:32:00,57.4,23.3,29.88,East,90,0.0,0.0,27,0.00,,,0.00,WUHU21423XXSP,2013-06-19 09:32:00,
2013-06-19 05:38:00,57.4,23.3,29.89,East,90,0.0,0.0,27,0.00,,,0.00,WUHU21423XXSP,2013-06-19 09:38:00,
2013-06-19 05:44:00,57.4,23.3,29.89,East,90,0.0,0.0,27,0.00,,,0.00,WUHU21423XXSP,2013-06-19 09:44:00,
2013-06-19 05:51:00,57.0,23.3,29.89,East,90,0.0,0.0,27,0.00,,,0.00,WUHU21423XXSP,2013-06-19 09:51:00,
2013-06-19 05:57:00,57.0,23.0,29.89,East,90,0.0,0.0,27,0.00,,,0.00,WUHU21423XXSP,2013-06-19 09:57:00,
2013-06-19 06:04:00,56.8,22.9,29.89,East,90,0.0,0.0,27,0.00,,,0.00,WUHU21423XXSP,2013-06-19 10:04:00,
2013-06-19 06:10:00,57.0,23.0,29.90,East,90,0.0,0.0,27,0.00,,,0.00,WUHU21423XXSP,2013-06-19 10:10:00,
2013-06-19 06:17:00,57.4,23.3,29.90,ENE,67,0.0,0.0,27,0.00,,,0.00,WUHU21423XXSP,2013-06-19 10:17:00,
2013-06-19 06:23:00,57.4,23.3,29.90,ENE,67,0.0,0.0,27,0.00,,,0.00,WUHU21423XXSP,2013-06-19 10:23:00,
2013-06-19 06:29:00,57.6,23.5,29.91,East,90,0.0,0.0,27,0.00,,,0.00,WUHU21423XXSP,2013-06-19 10:29:00,
2013-06-19 06:36:00,57.6,23.5,29.91,East,90,0.0,0.0,27,0.00,,,0.00,WUHU21423XXSP,2013-06-19 10:36:00,
2013-06-19 06:42:00,57.9,23.7,29.91,East,90,0.0,0.0,26,0.00,,,0.00,WUHU21423XXSP,2013-06-19 10:42:00,
2013-06-19 06:49:00,58.3,23.2,29.91,East,90,0.0,0.0,26,0.00,,,0.00,WUHU21423XXSP,2013-06-19 10:49:00,
2013-06-19 06:55:00,58.6,23.5,29.92,ENE,67,0.0,0.0,26,0.00,,,0.00,WUHU21423XXSP,2013-06-19 10:55:00,
2013-06-19 07:02:00,58.8,23.6,29.92,ENE,67,0.0,0.0,26,0.00,,,0.00,WUHU21423XXSP,2013-06-19 11:02:00,
2013-06-19 07:08:00,59.2,23.9,29.92,ENE,67,0.0,0.0,26,0.00,,,0.00,WUHU21423XXSP,2013-06-19 11:08:00,
2013-06-19 07:15:00,59.5,24.2,29.92,ENE,67,0.0,0.0,26,0.00,,,0.00,WUHU21423XXSP,2013-06-19 11:15:00,
2013-06-19 07:21:00,60.1,24.7,29.92,ENE,67,0.0,0.0,26,0.00,,,0.00,WUHU21423XXSP,2013-06-19 11:21:00,
2013-06-19 07:27:00,60.4,25.0,29.92,ENE,67,0.0,0.0,26,0.00,,,0.00,WUHU21423XXSP,2013-06-19 11:27:00,
2013-06-19 07:34:00,60.6,25.1,29.92,ENE,67,0.0,0.0,26,0.00,,,0.00,WUHU21423XXSP,2013-06-19 11:34:00,
2013-06-19 07:40:00,61.0,24.5,29.93,ENE,67,0.0,0.0,25,0.00,,,0.00,WUHU21423XXSP,2013-06-19 11:40:00,
2013-06-19 07:46:00,61.3,25.8,29.93,ENE,67,0.0,0.0,25,0.00,,,0.00,WUHU21423XXSP,2013-06-19 11:46:00,
2013-06-19 07:53:00,61.5,25.0,29.94,ENE,67,0.0,0.0,25,0.00,,,0.00,WUHU21423XXSP,2013-06-19 11:53:00,
2013-06-19 07:59:00,62.1,25.4,29.94,ENE,67,0.0,0.0,25,0.00,,,0.00,WUHU21423XXSP,2013-06-19 11:59:00,
2013-06-19 08:06:00,62.2,25.6,29.94,ENE,67,0.0,0.0,25,0.00,,,0.00,WUHU21423XXSP,2013-06-19 12:06:00,
2013-06-19 08:12:00,62.6,25.7,29.95,ENE,67,0.0,0.0,25,0.00,,,0.00,WUHU21423XXSP,2013-06-19 12:12:00,
2013-06-19 08:19:00,63.1,26.3,29.95,ENE,67,0.0,0.0,25,0.00,,,0.00,WUHU21423XXSP,2013-06-19 12:19:00,
2013-06-19 08:25:00,63.3,26.5,29.96,ENE,67,0.0,0.0,25,0.00,,,0.00,WUHU21423XXSP,2013-06-19 12:25:00,
2013-06-19 08:31:00,63.7,26.6,29.96,ENE,67,0.0,0.0,25,0.00,,,0.00,WUHU21423XXSP,2013-06-19 12:31:00,
2013-06-19 08:38:00,64.4,27.2,29.96,ENE,67,0.0,0.0,25,0.00,,,0.00,WUHU21423XXSP,2013-06-19 12:38:00,
2013-06-19 08:44:00,64.8,26.7,29.96,ENE,67,0.0,0.0,24,0.00,,,0.00,WUHU21423XXSP,2013-06-19 12:44:00,
2013-06-19 08:51:00,65.5,27.3,29.96,ENE,67,0.0,0.0,24,0.00,,,0.00,WUHU21423XXSP,2013-06-19 12:51:00,
2013-06-19 08:57:00,66.4,28.1,29.96,ENE,67,0.0,0.0,24,0.00,,,0.00,WUHU21423XXSP,2013-06-19 12:57:00,
2013-06-19 09:04:00,67.1,28.5,29.97,ENE,67,0.0,0.0,24,0.00,,,0.00,WUHU21423XXSP,2013-06-19 13:04:00,
2013-06-19 09:10:00,68.2,28.3,29.97,ENE,67,0.0,0.0,23,0.00,,,0.00,WUHU21423XXSP,2013-06-19 13:10:00,
2013-06-19 09:16:00,69.4,29.2,29.97,East,90,0.0,0.0,23,0.00,,,0.00,WUHU21423XXSP,2013-06-19 13:16:00,
2013-06-19 09:23:00,70.5,30.4,29.98,East,90,0.0,0.0,22,0.00,,,0.00,WUHU21423XXSP,2013-06-19 13:23:00,
2013-06-19 09:29:00,70.9,29.7,29.98,East,90,0.0,0.0,22,0.00,,,0.00,WUHU21423XXSP,2013-06-19 13:29:00,
2013-06-19 09:36:00,71.8,30.6,29.98,East,90,0.0,0.0,22,0.00,,,0.00,WUHU21423XXSP,2013-06-19 13:36:00,
2013-06-19 09:42:00,72.3,31.1,29.98,East,90,0.0,0.0,22,0.00,,,0.00,WUHU21423XXSP,2013-06-19 13:42:00,
2013-06-19 09:49:00,72.3,33.1,29.98,NE,45,0.0,0.0,24,0.00,,,0.00,WUHU21423XXSP,2013-06-19 13:49:00,
2013-06-19 09:55:00,71.8,34.7,29.99,NE,45,0.0,0.0,26,0.00,,,0.00,WUHU21423XXSP,2013-06-19 13:55:00,
2013-06-19 10:02:00,71.4,38.5,29.98,ENE,67,0.0,0.0,30,0.00,,,0.00,WUHU21423XXSP,2013-06-19 14:02:00,
2013-06-19 10:08:00,71.4,40.0,29.99,ESE,112,0.0,0.0,32,0.00,,,0.00,WUHU21423XXSP,2013-06-19 14:08:00,
2013-06-19 10:14:00,71.4,41.5,29.99,East,90,0.0,0.0,34,0.00,,,0.00,WUHU21423XXSP,2013-06-19 14:14:00,
2013-06-19 10:21:00,71.8,43.2,29.99,ENE,67,0.0,0.0,36,0.00,,,0.00,WUHU21423XXSP,2013-06-19 14:21:00,
2013-06-19 10:27:00,72.5,43.9,29.99,NE,45,0.0,0.0,36,0.00,,,0.00,WUHU21423XXSP,2013-06-19 14:27:00,
2013-06-19 10:34:00,73.0,46.6,29.99,ENE,67,0.0,0.0,39,0.00,,,0.00,WUHU21423XXSP,2013-06-19 14:34:00,
2013-06-19 10:40:00,73.4,47.7,30.00,ENE,67,0.0,0.0,40,0.00,,,0.00,WUHU21423XXSP,2013-06-19 14:40:00,
2013-06-19 10:46:00,73.9,48.7,29.99,East,90,0.0,0.0,41,0.00,,,0.00,WUHU21423XXSP,2013-06-19 14:46:00,
2013-06-19 10:53:00,73.9,49.3,30.00,NE,45,0.0,0.0,42,0.00,,,0.00,WUHU21423XXSP,2013-06-19 14:53:00,
2013-06-19 10:59:00,73.4,48.3,30.00,NE,45,0.0,0.0,41,0.00,,,0.00,WUHU21423XXSP,2013-06-19 14:59:00,
2013-06-19 11:06:00,73.0,48.5,30.00,ESE,112,0.0,0.0,42,0.00,,,0.00,WUHU21423XXSP,2013-06-19 15:06:00,
2013-06-19 11:12:00,73.9,48.8,30.00,ESE,112,0.0,0.0,42,0.00,,,0.00,WUHU21423XXSP,2013-06-19 15:12:00,
2013-06-19 11:18:00,73.9,50.7,30.00,NE,45,0.0,0.0,44,0.00,,,0.00,WUHU21423XXSP,2013-06-19 15:18:00,
2013-06-19 11:25:00,73.9,50.5,30.00,NE,45,0.0,0.0,44,0.00,,,0.00,WUHU21423XXSP,2013-06-19 15:25:00,
2013-06-19 11:31:00,73.2,49.3,30.00,ENE,67,0.0,0.0,43,0.00,,,0.00,WUHU21423XXSP,2013-06-19 15:31:00,
2013-06-19 11:38:00,73.0,48.7,30.01,NE,45,0.0,0.0,42,0.00,,,0.00,WUHU21423XXSP,2013-06-19 15:38:00,
2013-06-19 11:44:00,73.2,48.7,30.01,ENE,67,0.0,0.0,42,0.00,,,0.00,WUHU21423XXSP,2013-06-19 15:44:00,
2013-06-19 11:50:00,73.2,50.0,30.01,ESE,112,0.0,0.0,47,0.00,,,0.00,WUHU21423XXSP,2013-06-19 15:50:00,
2013-06-19 11:57:00,73.6,51.4,30.01,NE,45,0.0,0.0,46,0.00,,,0.00,WUHU21423XXSP,2013-06-19 15:57:00,
2013-06-19 12:03:00,73.2,51.7,30.01,ENE,67,0.0,0.0,47,0.00,,,0.00,WUHU21423XXSP,2013-06-19 16:03:00,
2013-06-19 12:10:00,73.8,52.8,30.01,NE,45,0.0,0.0,48,0.00,,,0.00,WUHU21423XXSP,2013-06-19 16:10:00,
2013-06-19 12:16:00,74.5,53.1,30.01,NE,45,0.0,0.0,51,0.00,,,0.00,WUHU21423XXSP,2013-06-19 16:16:00,
2013-06-19 12:23:00,74.1,54.3,30.01,ENE,67,0.0,0.0,51,0.00,,,0.00,WUHU21423XXSP,2013-06-19 16:23:00,
2013-06-19 12:30:00,73.9,55.1,30.02,ESE,112,0.0,0.0,52,0.00,,,0.00,WUHU21423XXSP,2013-06-19 16:30:00,
2013-06-19 12:35:00,73.6,53.8,30.02,ENE,67,0.0,0.0,50,0.00,,,0.00,WUHU21423XXSP,2013-06-19 16:35:00,
2013-06-19 12:42:00,72.9,54.1,30.02,East,90,0.0,0.0,52,0.00,,,0.00,WUHU21423XXSP,2013-06-19 16:42:00,
2013-06-19 12:48:00,73.9,54.6,30.02,ESE,112,0.0,0.0,51,0.00,,,0.00,WUHU21423XXSP,2013-06-19 16:48:00,
2013-06-19 12:55:00,74.8,57.1,30.01,ENE,67,0.0,0.0,54,0.00,,,0.00,WUHU21423XXSP,2013-06-19 16:55:00,
2013-06-19 13:01:00,75.0,57.2,30.01,East,90,0.0,0.0,54,0.00,,,0.00,WUHU21423XXSP,2013-06-19 17:01:00,
2013-06-19 13:08:00,74.5,55.7,30.02,East,90,0.0,0.0,52,0.00,,,0.00,WUHU21423XXSP,2013-06-19 17:08:00,
2013-06-19 13:14:00,75.6,57.7,30.01,SW,225,0.0,0.0,54,0.00,,,0.00,WUHU21423XXSP,2013-06-19 17:14:00,
2013-06-19 13:20:00,76.6,60.7,30.02,East,90,0.0,0.0,58,0.00,,,0.00,WUHU21423XXSP,2013-06-19 17:20:00,
2013-06-19 13:27:00,75.9,59.4,30.02,ENE,67,0.0,0.0,57,0.00,,,0.00,WUHU21423XXSP,2013-06-19 17:27:00,
2013-06-19 13:33:00,75.0,58.7,30.02,ESE,112,0.0,0.0,57,0.00,,,0.00,WUHU21423XXSP,2013-06-19 17:33:00,
2013-06-19 13:40:00,75.9,59.6,30.01,ENE,67,0.0,0.0,57,0.00,,,0.00,WUHU21423XXSP,2013-06-19 17:40:00,
2013-06-19 13:46:00,76.8,61.9,30.01,NW,315,0.0,0.0,60,0.00,,,0.00,WUHU21423XXSP,2013-06-19 17:46:00,
2013-06-19 13:52:00,76.5,60.6,30.01,East,90,0.0,0.0,58,0.00,,,0.00,WUHU21423XXSP,2013-06-19 17:52:00,
2013-06-19 13:59:00,75.6,60.4,30.01,NE,45,4.9,4.9,59,0.00,,,0.00,WUHU21423XXSP,2013-06-19 17:59:00,
2013-06-19 14:05:00,75.9,60.1,30.02,NE,45,1.6,4.9,58,0.00,,,0.00,WUHU21423XXSP,2013-06-19 18:05:00,
2013-06-19 14:12:00,75.4,59.1,30.02,ENE,67,7.4,7.4,57,0.00,,,0.00,WUHU21423XXSP,2013-06-19 18:12:00,
2013-06-19 14:17:00,75.0,59.3,30.02,NE,45,4.3,7.4,58,0.00,,,0.00,WUHU21423XXSP,2013-06-19 18:17:00,
2013-06-19 14:22:00,74.5,58.2,30.02,ENE,67,0.0,4.3,57,0.00,,,0.00,WUHU21423XXSP,2013-06-19 18:22:00,
2013-06-19 14:29:00,75.4,59.1,30.01,NE,45,0.0,0.9,57,0.00,,,0.00,WUHU21423XXSP,2013-06-19 18:29:00,
2013-06-19 14:35:00,77.5,61.6,30.01,SE,135,3.8,3.8,58,0.00,,,0.00,WUHU21423XXSP,2013-06-19 18:35:00,
2013-06-19 14:42:00,77.7,62.8,30.01,ENE,67,0.0,3.8,60,0.00,,,0.00,WUHU21423XXSP,2013-06-19 18:42:00,
2013-06-19 14:48:00,76.8,61.4,30.02,ENE,67,1.8,3.1,59,0.00,,,0.00,WUHU21423XXSP,2013-06-19 18:48:00,
2013-06-19 14:55:00,75.6,59.8,30.01,East,90,1.6,3.4,58,0.00,,,0.00,WUHU21423XXSP,2013-06-19 18:55:00,
2013-06-19 15:01:00,74.5,58.2,30.02,ENE,67,0.0,3.4,57,0.00,,,0.00,WUHU21423XXSP,2013-06-19 19:01:00,
2013-06-19 15:07:00,73.9,57.2,30.01,ENE,67,0.0,0.7,56,0.00,,,0.00,WUHU21423XXSP,2013-06-19 19:07:00,
2013-06-19 15:14:00,73.9,57.0,30.01,East,90,0.0,0.0,55,0.00,,,0.00,WUHU21423XXSP,2013-06-19 19:14:00,
2013-06-19 15:20:00,75.0,57.2,30.01,SSW,202,1.6,1.6,54,0.00,,,0.00,WUHU21423XXSP,2013-06-19 19:20:00,
2013-06-19 15:27:00,77.0,60.0,30.01,SSW,202,4.3,4.3,56,0.00,,,0.00,WUHU21423XXSP,2013-06-19 19:27:00,
2013-06-19 15:33:00,78.1,63.1,30.01,ENE,67,0.0,5.1,60,0.00,,,0.00,WUHU21423XXSP,2013-06-19 19:33:00,
2013-06-19 15:39:00,78.4,63.9,30.01,NNW,337,0.0,5.1,61,0.00,,,0.00,WUHU21423XXSP,2013-06-19 19:39:00,
2013-06-19 15:46:00,78.1,64.0,30.01,East,90,0.0,3.1,62,0.00,,,0.00,WUHU21423XXSP,2013-06-19 19:46:00,
2013-06-19 15:52:00,76.8,62.3,30.00,ESE,112,0.0,0.0,61,0.00,,,0.00,WUHU21423XXSP,2013-06-19 19:52:00,
2013-06-19 15:59:00,76.1,61.3,30.01,East,90,0.0,3.1,60,0.00,,,0.00,WUHU21423XXSP,2013-06-19 19:59:00,
2013-06-19 16:06:00,75.6,59.8,30.01,ESE,112,0.0,3.1,58,0.00,,,0.00,WUHU21423XXSP,2013-06-19 20:06:00,
2013-06-19 16:12:00,75.4,59.1,30.01,ESE,112,0.0,0.0,57,0.00,,,0.00,WUHU21423XXSP,2013-06-19 20:12:00,
2013-06-19 16:18:00,75.0,58.2,30.01,ESE,112,0.0,0.0,56,0.00,,,0.00,WUHU21423XXSP,2013-06-19 20:18:00,
2013-06-19 16:24:00,74.5,56.7,30.01,ESE,112,0.0,0.0,53,0.00,,,0.00,WUHU21423XXSP,2013-06-19 20:24:00,
2013-06-19 16:31:00,73.9,55.1,30.01,ESE,112,0.0,0.0,52,0.00,,,0.00,WUHU21423XXSP,2013-06-19 20:31:00,
2013-06-19 16:37:00,73.2,52.8,30.01,ESE,112,0.0,0.0,49,0.00,,,0.00,WUHU21423XXSP,2013-06-19 20:37:00,
2013-06-19 16:44:00,72.7,51.8,30.01,ESE,112,0.0,0.0,48,0.00,,,0.00,WUHU21423XXSP,2013-06-19 20:44:00,
2013-06-19 16:50:00,72.5,52.2,30.01,ESE,112,0.0,0.0,49,0.00,,,0.00,WUHU21423XXSP,2013-06-19 20:50:00,
2013-06-19 16:57:00,72.5,51.6,30.01,ESE,112,0.0,0.0,48,0.00,,,0.00,WUHU21423XXSP,2013-06-19 20:57:00,
2013-06-19 17:03:00,72.5,51.6,30.01,ESE,112,0.0,0.0,48,0.00,,,0.00,WUHU21423XXSP,2013-06-19 21:03:00,
2013-06-19 17:09:00,72.7,51.6,30.02,ESE,112,0.0,0.0,48,0.00,,,0.00,WUHU21423XXSP,2013-06-19 21:09:00,
2013-06-19 17:16:00,72.7,50.6,30.01,ESE,112,0.0,0.0,46,0.00,,,0.00,WUHU21423XXSP,2013-06-19 21:16:00,
2013-06-19 17:22:00,72.7,50.6,30.01,ESE,112,0.0,0.0,46,0.00,,,0.00,WUHU21423XXSP,2013-06-19 21:22:00,
2013-06-19 17:29:00,72.7,50.6,30.01,ESE,112,0.0,0.0,46,0.00,,,0.00,WUHU21423XXSP,2013-06-19 21:29:00,
2013-06-19 17:35:00,72.9,51.3,30.01,ESE,112,0.0,0.0,48,0.00,,,0.00,WUHU21423XXSP,2013-06-19 21:35:00,
2013-06-19 17:41:00,73.2,52.8,30.01,ESE,112,0.0,0.0,49,0.00,,,0.00,WUHU21423XXSP,2013-06-19 21:41:00,
2013-06-19 17:48:00,73.8,54.0,30.01,ESE,112,0.0,0.0,50,0.00,,,0.00,WUHU21423XXSP,2013-06-19 21:48:00,
2013-06-19 17:54:00,73.6,53.8,30.02,ESE,112,0.0,0.0,49,0.00,,,0.00,WUHU21423XXSP,2013-06-19 21:54:00,
2013-06-19 18:01:00,73.9,53.5,30.02,ESE,112,0.0,0.0,49,0.00,,,0.00,WUHU21423XXSP,2013-06-19 22:01:00,
2013-06-19 18:07:00,74.1,55.3,30.02,ENE,67,6.3,6.3,52,0.00,,,0.00,WUHU21423XXSP,2013-06-19 22:07:00,
2013-06-19 18:14:00,73.8,55.5,30.02,ENE,67,0.0,6.3,53,0.00,,,0.00,WUHU21423XXSP,2013-06-19 22:14:00,
2013-06-19 18:20:00,73.2,56.0,30.02,ENE,67,3.1,6.3,55,0.00,,,0.00,WUHU21423XXSP,2013-06-19 22:20:00,
2013-06-19 18:26:00,72.5,54.8,30.02,NE,45,0.0,5.1,54,0.00,,,0.00,WUHU21423XXSP,2013-06-19 22:26:00,
2013-06-19 18:33:00,71.8,54.5,30.03,NE,45,0.9,5.1,53,0.00,,,0.00,WUHU21423XXSP,2013-06-19 22:33:00,
2013-06-19 18:39:00,70.9,51.8,30.03,NE,45,3.8,3.8,51,0.00,,,0.00,WUHU21423XXSP,2013-06-19 22:39:00,
2013-06-19 18:46:00,70.2,50.3,30.03,NE,45,0.0,3.8,49,0.00,,,0.00,WUHU21423XXSP,2013-06-19 22:46:00,
2013-06-19 18:52:00,70.0,48.7,30.03,NE,45,0.0,0.0,46,0.00,,,0.00,WUHU21423XXSP,2013-06-19 22:52:00,
2013-06-19 18:58:00,69.6,46.6,30.03,NE,45,0.0,0.0,44,0.00,,,0.00,WUHU21423XXSP,2013-06-19 22:58:00,
2013-06-19 19:05:00,69.6,45.4,30.03,NE,45,0.0,0.0,42,0.00,,,0.00,WUHU21423XXSP,2013-06-19 23:05:00,
2013-06-19 19:11:00,69.3,43.9,30.03,NE,45,0.0,0.0,40,0.00,,,0.00,WUHU21423XXSP,2013-06-19 23:11:00,
2013-06-19 19:18:00,69.1,42.3,30.04,NE,45,0.0,0.0,38,0.00,,,0.00,WUHU21423XXSP,2013-06-19 23:18:00,
2013-06-19 19:24:00,68.7,42.0,30.04,NE,45,0.0,0.0,38,0.00,,,0.00,WUHU21423XXSP,2013-06-19 23:24:00,
2013-06-19 19:31:00,68.7,41.1,30.05,NE,45,0.0,0.0,37,0.00,,,0.00,WUHU21423XXSP,2013-06-19 23:31:00,
2013-06-19 19:37:00,68.5,39.6,30.05,NE,45,0.0,0.0,35,0.00,,,0.00,WUHU21423XXSP,2013-06-19 23:37:00,
2013-06-19 19:43:00,68.5,38.9,30.05,NE,45,0.0,0.0,34,0.00,,,0.00,WUHU21423XXSP,2013-06-19 23:43:00,
2013-06-19 19:50:00,68.2,38.5,30.05,NE,45,0.0,0.0,34,0.00,,,0.00,WUHU21423XXSP,2013-06-19 23:50:00,
2013-06-19 19:56:00,68.0,38.4,30.05,NE,45,0.0,0.0,34,0.00,,,0.00,WUHU21423XXSP,2013-06-19 23:56:00,
2013-06-19 20:03:00,67.8,37.5,30.05,NE,45,0.0,0.0,33,0.00,,,0.00,WUHU21423XXSP,2013-06-20 00:03:00,
2013-06-19 20:09:00,68.0,36.7,30.05,NE,45,0.0,0.0,32,0.00,,,0.00,WUHU21423XXSP,2013-06-20 00:09:00,
2013-06-19 20:16:00,67.8,36.0,30.05,NE,45,0.0,0.0,31,0.00,,,0.00,WUHU21423XXSP,2013-06-20 00:16:00,
2013-06-19 20:22:00,67.8,36.0,30.05,NE,45,0.0,0.0,31,0.00,,,0.00,WUHU21423XXSP,2013-06-20 00:22:00,
2013-06-19 20:28:00,67.6,36.0,30.06,NE,45,0.0,0.0,31,0.00,,,0.00,WUHU21423XXSP,2013-06-20 00:28:00,
2013-06-19 20:35:00,67.6,35.1,30.06,NE,45,0.0,0.0,30,0.00,,,0.00,WUHU21423XXSP,2013-06-20 00:35:00,
2013-06-19 20:41:00,67.6,35.1,30.06,NE,45,0.0,0.0,30,0.00,,,0.00,WUHU21423XXSP,2013-06-20 00:41:00,
2013-06-19 20:48:00,67.6,33.1,30.06,NE,45,0.0,0.0,28,0.00,,,0.00,WUHU21423XXSP,2013-06-20 00:48:00,
2013-06-19 20:54:00,67.6,33.1,30.06,NE,45,0.0,0.0,28,0.00,,,0.00,WUHU21423XXSP,2013-06-20 00:54:00,
2013-06-19 21:01:00,67.3,32.8,30.06,NE,45,0.0,0.0,28,0.00,,,0.00,WUHU21423XXSP,2013-06-20 01:01:00,
2013-06-19 21:07:00,67.3,32.8,30.06,NE,45,0.0,0.0,27,0.00,,,0.00,WUHU21423XXSP,2013-06-20 01:07:00,
2013-06-19 21:13:00,67.3,31.8,30.07,NE,45,0.0,0.0,27,0.00,,,0.00,WUHU21423XXSP,2013-06-20 01:13:00,
2013-06-19 21:20:00,67.3,31.8,30.07,NE,45,0.0,0.0,27,0.00,,,0.00,WUHU21423XXSP,2013-06-20 01:20:00,
2013-06-19 21:26:00,67.3,31.8,30.07,NE,45,0.0,0.0,27,0.00,,,0.00,WUHU21423XXSP,2013-06-20 01:26:00,
2013-06-19 21:33:00,67.1,30.7,30.07,NE,45,0.0,0.0,26,0.00,,,0.00,WUHU21423XXSP,2013-06-20 01:33:00,
2013-06-19 21:39:00,67.1,30.7,30.07,NE,45,0.0,0.0,26,0.00,,,0.00,WUHU21423XXSP,2013-06-20 01:39:00,
2013-06-19 21:45:00,66.9,30.5,30.07,NE,45,0.0,0.0,26,0.00,,,0.00,WUHU21423XXSP,2013-06-20 01:45:00,
2013-06-19 21:52:00,66.9,30.5,30.07,NE,45,0.0,0.0,26,0.00,,,0.00,WUHU21423XXSP,2013-06-20 01:52:00,
2013-06-19 21:58:00,67.1,30.5,30.07,NE,45,0.0,0.0,25,0.00,,,0.00,WUHU21423XXSP,2013-06-20 01:58:00,
2013-06-19 22:05:00,67.1,29.7,30.07,NE,45,0.0,0.0,25,0.00,,,0.00,WUHU21423XXSP,2013-06-20 02:05:00,
2013-06-19 22:11:00,67.1,29.7,30.08,NE,45,0.0,0.0,25,0.00,,,0.00,WUHU21423XXSP,2013-06-20 02:11:00,
2013-06-19 22:18:00,67.1,29.7,30.08,NE,45,0.0,0.0,25,0.00,,,0.00,WUHU21423XXSP,2013-06-20 02:18:00,
2013-06-19 22:24:00,66.9,29.6,30.08,NE,45,0.0,0.0,25,0.00,,,0.00,WUHU21423XXSP,2013-06-20 02:24:00,
2013-06-19 22:30:00,66.7,29.4,30.09,NE,45,0.0,0.0,25,0.00,,,0.00,WUHU21423XXSP,2013-06-20 02:30:00,
2013-06-19 22:37:00,66.7,29.4,30.09,NE,45,0.0,0.0,25,0.00,,,0.00,WUHU21423XXSP,2013-06-20 02:37:00,
2013-06-19 22:43:00,66.7,29.4,30.09,NE,45,0.0,0.0,25,0.00,,,0.00,WUHU21423XXSP,2013-06-20 02:43:00,
2013-06-19 22:50:00,66.6,28.2,30.09,NE,45,0.0,0.0,24,0.00,,,0.00,WUHU21423XXSP,2013-06-20 02:50:00,
2013-06-19 22:56:00,66.6,29.2,30.09,NE,45,0.0,0.0,24,0.00,,,0.00,WUHU21423XXSP,2013-06-20 02:56:00,
2013-06-19 23:03:00,66.6,28.2,30.09,NE,45,0.0,0.0,24,0.00,,,0.00,WUHU21423XXSP,2013-06-20 03:03:00,
2013-06-19 23:09:00,66.6,28.2,30.09,NE,45,0.0,0.0,24,0.00,,,0.00,WUHU21423XXSP,2013-06-20 03:09:00,
2013-06-19 23:16:00,66.6,28.2,30.09,NE,45,0.0,0.0,24,0.00,,,0.00,WUHU21423XXSP,2013-06-20 03:16:00,
2013-06-19 23:22:00,66.6,28.2,30.09,NE,45,0.0,0.0,24,0.00,,,0.00,WUHU21423XXSP,2013-06-20 03:22:00,
2013-06-19 23:28:00,66.6,28.2,30.10,NE,45,0.0,0.0,24,0.00,,,0.00,WUHU21423XXSP,2013-06-20 03:28:00,
2013-06-19 23:35:00,66.6,28.2,30.10,NE,45,0.0,0.0,24,0.00,,,0.00,WUHU21423XXSP,2013-06-20 03:35:00,
2013-06-19 23:41:00,66.7,28.4,30.10,NE,45,0.0,0.0,24,0.00,,,0.00,WUHU21423XXSP,2013-06-20 03:41:00,
2013-06-19 23:48:00,66.7,28.4,30.10,NE,45,0.0,0.0,24,0.00,,,0.00,WUHU21423XXSP,2013-06-20 03:48:00,
2013-06-19 23:54:00,66.7,28.4,30.11,NE,45,0.0,0.0,24,0.00,,,0.00,WUHU21423XXSP,2013-06-20 03:54:00,